| time (UTC) | temp C | wind direction | speed KPH | gust KPH | rain 1hr cm | rain 24hr cm | rain mn cm | humidity % | barometer mb |
| 20260507140550 | 21 | 160 | 6.4 | 11.3 | 0.00 | 0.00 | 0.00 | 58 | 1013.9 |
| 20260507140048 | 21 | 114 | 3.2 | 11.3 | 0.00 | 0.00 | 0.00 | 59 | 1013.9 |
| 20260507135548 | 21 | 120 | 4.8 | 11.3 | 0.00 | 0.00 | 0.00 | 61 | 1014.0 |
| 20260507135047 | 23 | 255 | 1.6 | 8.0 | 0.00 | 0.00 | 0.00 | 56 | 1013.9 |
| 20260507134546 | 21 | 106 | 3.2 | 8.0 | 0.00 | 0.00 | 0.00 | 60 | 1014.1 |
| 20260507134044 | 21 | 166 | 3.2 | 6.4 | 0.00 | 0.00 | 0.00 | 59 | 1014.1 |
| 20260507133543 | 21 | 213 | 3.2 | 14.5 | 0.00 | 0.00 | 0.00 | 63 | 1014.0 |
| 20260507133042 | 21 | 210 | 3.2 | 14.5 | 0.00 | 0.00 | 0.00 | 66 | 1014.0 |
| 20260507132541 | 20 | 194 | 3.2 | 16.1 | 0.00 | 0.00 | 0.00 | 66 | 1014.0 |
| 20260507132040 | 20 | 206 | 8.0 | 16.1 | 0.00 | 0.00 | 0.00 | 70 | 1014.1 |
| 20260507131539 | 20 | 212 | 9.7 | 12.9 | 0.00 | 0.00 | 0.00 | 68 | 1014.0 |
| 20260507131038 | 19 | 188 | 6.4 | 14.5 | 0.00 | 0.00 | 0.00 | 73 | 1014.1 |
| 20260507130537 | 18 | 200 | 6.4 | 14.5 | 0.00 | 0.00 | 0.00 | 76 | 1014.2 |
| 20260507130034 | 18 | 187 | 6.4 | 14.5 | 0.00 | 0.00 | 0.00 | 76 | 1014.2 |
| 20260507125532 | 18 | 205 | 6.4 | 12.9 | 0.00 | 0.00 | 0.00 | 77 | 1014.2 |
| 20260507125032 | 18 | 220 | 6.4 | 12.9 | 0.00 | 0.00 | 0.00 | 78 | 1014.3 |
| 20260507124529 | 18 | 211 | 9.7 | 12.9 | 0.00 | 0.00 | 0.00 | 78 | 1014.2 |
| 20260507124028 | 18 | 195 | 6.4 | 12.9 | 0.00 | 0.00 | 0.00 | 76 | 1014.2 |
| 20260507123527 | 18 | 208 | 4.8 | 12.9 | 0.00 | 0.00 | 0.00 | 75 | 1014.2 |
| 20260507122523 | 18 | 202 | 4.8 | 9.7 | 0.00 | 0.00 | 0.00 | 76 | 1014.2 |
| 20260507122022 | 18 | 201 | 6.4 | 11.3 | 0.00 | 0.00 | 0.00 | 75 | 1014.3 |
| 20260507121521 | 18 | 204 | 6.4 | 11.3 | 0.00 | 0.00 | 0.00 | 74 | 1014.3 |
| 20260507121019 | 19 | 275 | 3.2 | 8.0 | 0.00 | 0.00 | 0.00 | 72 | 1014.3 |
| 20260507120518 | 19 | 266 | 3.2 | 9.7 | 0.00 | 0.00 | 0.00 | 73 | 1014.4 |
| 20260507120017 | 18 | 231 | 3.2 | 11.3 | 0.00 | 0.00 | 0.00 | 73 | 1014.3 |
| 20260507115516 | 18 | 209 | 6.4 | 14.5 | 0.00 | 0.00 | 0.00 | 73 | 1014.4 |
| 20260507115015 | 20 | 209 | 8.0 | 14.5 | 0.00 | 0.00 | 0.00 | 69 | 1014.5 |
| 20260507114514 | 22 | 230 | 1.6 | 9.7 | 0.00 | 0.00 | 0.00 | 63 | 1014.3 |
| 20260507114013 | 20 | 211 | 3.2 | 12.9 | 0.00 | 0.00 | 0.00 | 70 | 1014.5 |
| 20260507113512 | 18 | 266 | 6.4 | 12.9 | 0.00 | 0.00 | 0.00 | 77 | 1014.6 |
| 20260507113011 | 17 | 254 | 6.4 | 12.9 | 0.00 | 0.00 | 0.00 | 79 | 1014.7 |
| 20260507112510 | 17 | 227 | 8.0 | 12.9 | 0.00 | 0.00 | 0.00 | 80 | 1014.7 |
| 20260507112008 | 17 | 194 | 6.4 | 12.9 | 0.00 | 0.00 | 0.00 | 79 | 1014.6 |
| 20260507111507 | 17 | 202 | 8.0 | 14.5 | 0.00 | 0.00 | 0.00 | 78 | 1014.7 |
| 20260507111006 | 17 | 227 | 6.4 | 14.5 | 0.00 | 0.00 | 0.00 | 78 | 1014.8 |
| 20260507110005 | 17 | 202 | 9.7 | 16.1 | 0.00 | 0.00 | 0.00 | 79 | 1014.9 |
| 20260507105503 | 17 | 258 | 9.7 | 16.1 | 0.00 | 0.00 | 0.00 | 78 | 1014.9 |
| 20260507104501 | 17 | 262 | 9.7 | 16.1 | 0.00 | 0.00 | 0.00 | 78 | 1015.0 |
| 20260507103457 | 17 | 263 | 9.7 | 20.9 | 0.00 | 0.00 | 0.00 | 83 | 1015.1 |
| 20260507102955 | 17 | 254 | 9.7 | 20.9 | 0.00 | 0.00 | 0.00 | 83 | 1014.9 |
| 20260507101953 | 17 | 239 | 6.4 | 16.1 | 0.00 | 0.00 | 0.00 | 83 | 1015.0 |
| 20260507101453 | 17 | 246 | 6.4 | 12.9 | 0.00 | 0.00 | 0.00 | 83 | 1015.1 |
| 20260507100951 | 17 | 232 | 8.0 | 16.1 | 0.00 | 0.00 | 0.00 | 84 | 1015.0 |
| 20260507100450 | 16 | 246 | 8.0 | 16.1 | 0.00 | 0.00 | 0.00 | 84 | 1015.0 |
| 20260507095444 | 16 | 246 | 8.0 | 17.7 | 0.00 | 0.00 | 0.00 | 87 | 1015.0 |
| 20260507094942 | 16 | 227 | 9.7 | 17.7 | 0.00 | 0.00 | 0.00 | 88 | 1014.9 |
| 20260507094441 | 16 | 252 | 9.7 | 16.1 | 0.00 | 0.00 | 0.00 | 89 | 1014.9 |
| 20260507093935 | 16 | 235 | 9.7 | 17.7 | 0.00 | 0.00 | 0.00 | 88 | 1014.9 |
| 20260507092933 | 16 | 216 | 8.0 | 16.1 | 0.00 | 0.00 | 0.00 | 85 | 1014.8 |
| 20260507092430 | 17 | 216 | 8.0 | 17.7 | 0.00 | 0.00 | 0.00 | 86 | 1014.8 |
| 20260507091427 | 16 | 214 | 11.3 | 20.9 | 0.00 | 0.00 | 0.00 | 89 | 1014.5 |
| 20260507090926 | 17 | 240 | 9.7 | 19.3 | 0.00 | 0.00 | 0.00 | 87 | 1014.6 |
| 20260507090425 | 16 | 227 | 11.3 | 19.3 | 0.00 | 0.00 | 0.00 | 86 | 1014.5 |
| 20260507085924 | 17 | 217 | 9.7 | 19.3 | 0.00 | 0.00 | 0.00 | 87 | 1014.5 |
| 20260507085422 | 16 | 228 | 12.9 | 22.5 | 0.00 | 0.00 | 0.00 | 84 | 1014.4 |
| 20260507084921 | 17 | 226 | 11.3 | 22.5 | 0.00 | 0.00 | 0.00 | 82 | 1014.2 |
| 20260507084420 | 18 | 242 | 8.0 | 16.1 | 0.00 | 0.00 | 0.00 | 77 | 1014.0 |
| 20260507083918 | 18 | 207 | 8.0 | 19.3 | 0.00 | 0.00 | 0.00 | 80 | 1014.0 |
| 20260507083416 | 18 | 237 | 9.7 | 20.9 | 0.00 | 0.00 | 0.00 | 81 | 1013.9 |
| 20260507082915 | 18 | 218 | 9.7 | 20.9 | 0.00 | 0.00 | 0.00 | 82 | 1013.8 |
| 20260507082414 | 17 | 217 | 9.7 | 24.1 | 0.00 | 0.00 | 0.00 | 84 | 1013.7 |
| 20260507081912 | 17 | 235 | 11.3 | 19.3 | 0.00 | 0.00 | 0.00 | 85 | 1013.8 |
| 20260507080409 | 18 | 220 | 9.7 | 20.9 | 0.00 | 0.00 | 0.00 | 87 | 1013.6 |
| 20260507075904 | 18 | 199 | 8.0 | 16.1 | 0.00 | 0.00 | 0.00 | 84 | 1013.6 |
| 20260507075403 | 18 | 202 | 6.4 | 19.3 | 0.00 | 0.00 | 0.00 | 85 | 1013.6 |
| 20260507074902 | 18 | 193 | 6.4 | 16.1 | 0.00 | 0.00 | 0.00 | 87 | 1013.6 |
| 20260507074401 | 17 | 227 | 8.0 | 16.1 | 0.00 | 0.00 | 0.00 | 89 | 1013.8 |
| 20260507073900 | 17 | 201 | 8.0 | 14.5 | 0.00 | 0.00 | 0.00 | 92 | 1013.7 |
| 20260507073358 | 17 | 256 | 6.4 | 14.5 | 0.00 | 0.00 | 0.00 | 97 | 1013.6 |
| 20260507072857 | 16 | 210 | 6.4 | 12.9 | 0.00 | 0.00 | 0.00 | 98 | 1013.6 |
| 20260507072356 | 15 | 228 | 6.4 | 14.5 | 0.00 | 0.00 | 0.00 | 100 | 1013.7 |
| 20260507071854 | 15 | 201 | 6.4 | 14.5 | 0.00 | 0.00 | 0.00 | 100 | 1013.7 |
| 20260507071353 | 15 | 232 | 4.8 | 12.9 | 0.00 | 0.00 | 0.00 | 100 | 1013.8 |
| 20260507070853 | 15 | 224 | 8.0 | 12.9 | 0.00 | 0.00 | 0.00 | 100 | 1013.7 |
| 20260507065851 | 14 | 227 | 8.0 | 14.5 | 0.00 | 0.00 | 0.00 | 100 | 1013.6 |
| 20260507065349 | 15 | 211 | 4.8 | 12.9 | 0.00 | 0.00 | 0.00 | 100 | 1013.6 |
| 20260507064847 | 14 | 211 | 3.2 | 11.3 | 0.00 | 0.00 | 0.00 | 100 | 1013.5 |
| 20260507064347 | 14 | 200 | 6.4 | 11.3 | 0.00 | 0.00 | 0.00 | 100 | 1013.5 |
| 20260507063846 | 14 | 193 | 4.8 | 16.1 | 0.00 | 0.00 | 0.00 | 100 | 1013.5 |
| 20260507063342 | 13 | 202 | 9.7 | 16.1 | 0.00 | 0.00 | 0.00 | 100 | 1013.5 |
| 20260507062840 | 13 | 203 | 8.0 | 16.1 | 0.00 | 0.00 | 0.00 | 100 | 1013.4 |
| 20260507062339 | 13 | 211 | 4.8 | 14.5 | 0.00 | 0.00 | 0.00 | 100 | 1013.4 |
| 20260507061837 | 13 | 198 | 8.0 | 12.9 | 0.00 | 0.00 | 0.00 | 100 | 1013.4 |
| 20260507060834 | 13 | 191 | 6.4 | 12.9 | 0.00 | 0.00 | 0.00 | 100 | 1013.3 |
| 20260507060333 | 13 | 205 | 6.4 | 16.1 | 0.00 | 0.00 | 0.00 | 100 | 1013.2 |
| 20260507055831 | 13 | 204 | 8.0 | 16.1 | 0.00 | 0.00 | 0.00 | 100 | 1013.1 |
| 20260507055330 | 13 | 200 | 9.7 | 16.1 | 0.00 | 0.00 | 0.00 | 100 | 1013.0 |
| 20260507054830 | 13 | 198 | 8.0 | 16.1 | 0.00 | 0.00 | 0.00 | 100 | 1013.0 |
| 20260507054329 | 13 | 195 | 6.4 | 19.3 | 0.00 | 0.00 | 0.00 | 100 | 1012.9 |
| 20260507053826 | 13 | 188 | 8.0 | 19.3 | 0.00 | 0.00 | 0.00 | 100 | 1012.9 |
| 20260507053325 | 13 | 199 | 9.7 | 19.3 | 0.00 | 0.00 | 0.00 | 100 | 1012.8 |
| 20260507052821 | 13 | 203 | 8.0 | 16.1 | 0.00 | 0.00 | 0.00 | 100 | 1012.8 |
| 20260507052318 | 13 | 205 | 9.7 | 16.1 | 0.00 | 0.00 | 0.00 | 100 | 1012.7 |
| 20260507051817 | 13 | 192 | 8.0 | 16.1 | 0.00 | 0.00 | 0.00 | 100 | 1012.5 |
| 20260507051316 | 13 | 187 | 6.4 | 11.3 | 0.00 | 0.00 | 0.00 | 100 | 1012.5 |
| 20260507050814 | 13 | 167 | 1.6 | 9.7 | 0.00 | 0.00 | 0.00 | 100 | 1012.3 |
| 20260507050309 | 13 | 192 | 4.8 | 11.3 | 0.00 | 0.00 | 0.00 | 100 | 1012.3 |
| 20260507045807 | 13 | 207 | 4.8 | 11.3 | 0.00 | 0.00 | 0.00 | 100 | 1012.4 |
| 20260507045306 | 13 | 214 | 4.8 | 12.9 | 0.00 | 0.00 | 0.00 | 100 | 1012.3 |
| 20260507044803 | 13 | 213 | 6.4 | 12.9 | 0.00 | 0.00 | 0.00 | 100 | 1012.3 |
| 20260507044302 | 13 | 214 | 8.0 | 12.9 | 0.00 | 0.00 | 0.00 | 100 | 1012.2 |
| 20260507043801 | 13 | 202 | 4.8 | 16.1 | 0.00 | 0.00 | 0.00 | 100 | 1012.0 |
| 20260507043259 | 13 | 216 | 4.8 | 11.3 | 0.00 | 0.00 | 0.00 | 100 | 1012.1 |
| 20260507042758 | 13 | 215 | 4.8 | 9.7 | 0.00 | 0.00 | 0.00 | 100 | 1011.9 |
| 20260507042257 | 13 | 199 | 4.8 | 16.1 | 0.00 | 0.00 | 0.00 | 100 | 1011.9 |
| 20260507041755 | 13 | 206 | 6.4 | 16.1 | 0.00 | 0.00 | 0.00 | 100 | 1011.9 |
| 20260507041253 | 13 | 207 | 6.4 | 14.5 | 0.00 | 0.00 | 0.00 | 100 | 1011.9 |
| 20260507040751 | 13 | 211 | 4.8 | 11.3 | 0.00 | 0.00 | 0.00 | 100 | 1011.8 |
| 20260507040250 | 13 | 224 | 3.2 | 6.4 | 0.00 | 0.00 | 0.00 | 100 | 1011.8 |
| 20260507035748 | 13 | 213 | 3.2 | 8.0 | 0.00 | 0.00 | 0.00 | 100 | 1011.8 |
| 20260507035247 | 13 | 210 | 3.2 | 14.5 | 0.00 | 0.00 | 0.00 | 100 | 1011.7 |
| 20260507034746 | 13 | 216 | 8.0 | 14.5 | 0.00 | 0.00 | 0.00 | 100 | 1011.7 |
| 20260507034245 | 13 | 230 | 4.8 | 11.3 | 0.00 | 0.00 | 0.00 | 100 | 1011.6 |
| 20260507033744 | 13 | 218 | 4.8 | 12.9 | 0.00 | 0.00 | 0.00 | 100 | 1011.6 |
| 20260507032530 | 13 | 214 | 3.2 | 9.7 | 0.00 | 0.00 | 0.00 | 100 | 1011.4 |
| 20260507032029 | 13 | 204 | 4.8 | 11.3 | 0.00 | 0.00 | 0.00 | 100 | 1011.2 |
| 20260507031526 | 13 | 196 | 6.4 | 11.3 | 0.00 | 0.00 | 0.00 | 100 | 1011.2 |
| 20260507031025 | 13 | 196 | 6.4 | 11.3 | 0.00 | 0.00 | 0.00 | 100 | 1011.1 |
| 20260507030524 | 13 | 198 | 4.8 | 14.5 | 0.00 | 0.00 | 0.00 | 100 | 1011.1 |
| 20260507030021 | 13 | 191 | 6.4 | 14.5 | 0.00 | 0.00 | 0.00 | 100 | 1011.2 |
| 20260507025521 | 13 | 186 | 4.8 | 9.7 | 0.00 | 0.00 | 0.00 | 100 | 1011.3 |
| 20260507025019 | 13 | 187 | 4.8 | 12.9 | 0.00 | 0.00 | 0.00 | 100 | 1011.1 |
| 20260507024518 | 13 | 179 | 4.8 | 12.9 | 0.00 | 0.00 | 0.00 | 100 | 1011.2 |
| 20260507024017 | 13 | 187 | 6.4 | 19.3 | 0.00 | 0.00 | 0.00 | 100 | 1011.2 |
| 20260507023514 | 13 | 174 | 8.0 | 19.3 | 0.00 | 0.00 | 0.00 | 100 | 1011.2 |
| 20260507023013 | 13 | 173 | 8.0 | 16.1 | 0.00 | 0.00 | 0.00 | 100 | 1011.1 |
| 20260507022511 | 13 | 198 | 6.4 | 14.5 | 0.00 | 0.00 | 0.00 | 100 | 1011.1 |
| 20260507022010 | 13 | 205 | 8.0 | 14.5 | 0.00 | 0.00 | 0.00 | 100 | 1011.1 |
| 20260507021508 | 13 | 189 | 6.4 | 11.3 | 0.00 | 0.00 | 0.00 | 100 | 1011.0 |
| 20260507021007 | 13 | 196 | 3.2 | 16.1 | 0.00 | 0.00 | 0.00 | 100 | 1010.9 |
| 20260507020506 | 13 | 188 | 8.0 | 16.1 | 0.00 | 0.00 | 0.00 | 100 | 1010.9 |
| 20260507020005 | 13 | 177 | 4.8 | 11.3 | 0.00 | 0.00 | 0.00 | 100 | 1010.9 |
| 20260507015504 | 13 | 181 | 4.8 | 9.7 | 0.00 | 0.00 | 0.00 | 100 | 1010.8 |
| 20260507015003 | 13 | 175 | 3.2 | 9.7 | 0.00 | 0.00 | 0.00 | 100 | 1010.8 |
| 20260507014501 | 13 | 166 | 3.2 | 11.3 | 0.00 | 0.00 | 0.00 | 100 | 1010.9 |
| 20260507013459 | 14 | 179 | 8.0 | 12.9 | 0.00 | 0.00 | 0.00 | 100 | 1010.9 |
| 20260507012956 | 14 | 192 | 6.4 | 12.9 | 0.00 | 0.00 | 0.00 | 100 | 1010.9 |
| 20260507012455 | 14 | 190 | 6.4 | 12.9 | 0.00 | 0.00 | 0.00 | 100 | 1011.0 |
| 20260507011953 | 14 | 202 | 6.4 | 16.1 | 0.00 | 0.00 | 0.00 | 100 | 1010.9 |
| 20260507011451 | 14 | 202 | 8.0 | 17.7 | 0.00 | 0.00 | 0.00 | 100 | 1010.9 |
| 20260507010449 | 15 | 208 | 8.0 | 19.3 | 0.00 | 0.00 | 0.00 | 100 | 1010.6 |
| 20260507005947 | 15 | 203 | 8.0 | 19.3 | 0.00 | 0.00 | 0.00 | 100 | 1010.5 |
| 20260507005443 | 15 | 204 | 9.7 | 20.9 | 0.00 | 0.00 | 0.00 | 100 | 1010.5 |
| 20260507004942 | 15 | 200 | 8.0 | 29.0 | 0.00 | 0.00 | 0.00 | 100 | 1010.3 |
| 20260507004441 | 15 | 200 | 11.3 | 29.0 | 0.00 | 0.00 | 0.00 | 100 | 1010.2 |
| 20260507003937 | 15 | 202 | 11.3 | 33.8 | 0.00 | 0.00 | 0.00 | 100 | 1010.1 |
| 20260507003432 | 15 | 212 | 14.5 | 33.8 | 0.00 | 0.00 | 0.00 | 100 | 1009.9 |
| 20260507002931 | 15 | 207 | 16.1 | 30.6 | 0.00 | 0.00 | 0.00 | 100 | 1009.8 |
| 20260507001427 | 16 | 202 | 17.7 | 35.4 | 0.00 | 0.00 | 0.00 | 100 | 1009.8 |
| 20260507000926 | 16 | 201 | 12.9 | 33.8 | 0.00 | 0.00 | 0.00 | 100 | 1009.7 |
| 20260506235924 | 16 | 202 | 19.3 | 37.0 | 0.00 | 0.00 | 0.00 | 100 | 1009.6 |
| 20260506235422 | 16 | 201 | 19.3 | 37.0 | 0.00 | 0.00 | 0.00 | 100 | 1009.5 |
| 20260506234916 | 16 | 198 | 17.7 | 37.0 | 0.00 | 0.00 | 0.00 | 100 | 1009.5 |
| 20260506234356 | 16 | 201 | 22.5 | 37.0 | 0.00 | 0.00 | 0.00 | 98 | 1009.3 |
| 20260506233844 | 16 | 198 | 19.3 | 46.7 | 0.00 | 0.00 | 0.00 | 96 | 1009.2 |
| 20260506233325 | 17 | 197 | 27.4 | 46.7 | 0.00 | 0.00 | 0.00 | 94 | 1009.2 |
| 20260506232824 | 17 | 201 | 12.9 | 29.0 | 0.00 | 0.00 | 0.00 | 94 | 1009.0 |
| 20260506231722 | 16 | 182 | 12.9 | 25.7 | 0.00 | 0.00 | 0.00 | 98 | 1008.9 |
| 20260506231213 | 16 | 182 | 11.3 | 32.2 | 0.00 | 0.00 | 0.00 | 100 | 1008.7 |
| 20260506230711 | 16 | 171 | 14.5 | 30.6 | 0.00 | 0.00 | 0.00 | 98 | 1008.5 |
| 20260506230210 | 16 | 177 | 19.3 | 33.8 | 0.00 | 0.00 | 0.00 | 98 | 1008.6 |
| 20260506225710 | 17 | 174 | 22.5 | 37.0 | 0.00 | 0.00 | 0.00 | 97 | 1008.4 |
| 20260506225208 | 16 | 155 | 16.1 | 43.5 | 0.00 | 0.00 | 0.00 | 99 | 1008.4 |
| 20260506224707 | 16 | 161 | 19.3 | 35.4 | 0.00 | 0.00 | 0.00 | 100 | 1008.3 |
| 20260506224206 | 16 | 160 | 22.5 | 35.4 | 0.00 | 0.00 | 0.00 | 98 | 1008.2 |
| 20260506223704 | 16 | 165 | 16.1 | 37.0 | 0.00 | 0.00 | 0.00 | 100 | 1008.3 |
| 20260506223203 | 16 | 157 | 17.7 | 37.0 | 0.00 | 0.00 | 0.00 | 100 | 1008.1 |
| 20260506222702 | 16 | 161 | 22.5 | 38.6 | 0.00 | 0.00 | 0.00 | 100 | 1008.2 |
| 20260506222157 | 16 | 168 | 20.9 | 37.0 | 0.00 | 0.00 | 0.00 | 100 | 1008.2 |
| 20260506221150 | 17 | 162 | 20.9 | 45.1 | 0.00 | 0.00 | 0.00 | 99 | 1008.2 |
| 20260506220649 | 17 | 151 | 20.9 | 45.1 | 0.00 | 0.00 | 0.00 | 99 | 1008.0 |
| 20260506220147 | 17 | 164 | 22.5 | 41.8 | 0.00 | 0.00 | 0.00 | 99 | 1008.1 |
| 20260506215646 | 16 | 156 | 20.9 | 38.6 | 0.00 | 0.00 | 0.00 | 100 | 1007.9 |
| 20260506215145 | 16 | 158 | 17.7 | 37.0 | 0.00 | 0.00 | 0.00 | 100 | 1008.0 |
| 20260506214644 | 16 | 153 | 20.9 | 37.0 | 0.00 | 0.00 | 0.00 | 100 | 1008.0 |
| 20260506214143 | 16 | 159 | 19.3 | 37.0 | 0.00 | 0.00 | 0.00 | 100 | 1008.0 |
| 20260506213640 | 16 | 158 | 16.1 | 37.0 | 0.00 | 0.00 | 0.00 | 100 | 1008.3 |
| 20260506213139 | 16 | 162 | 14.5 | 32.2 | 0.00 | 0.00 | 0.00 | 100 | 1008.4 |
| 20260506212638 | 16 | 155 | 17.7 | 37.0 | 0.00 | 0.00 | 0.00 | 100 | 1008.2 |
| 20260506212136 | 16 | 164 | 16.1 | 37.0 | 0.00 | 0.00 | 0.00 | 100 | 1008.3 |
| 20260506211133 | 16 | 151 | 14.5 | 33.8 | 0.00 | 0.00 | 0.00 | 100 | 1008.1 |
| 20260506210632 | 16 | 163 | 12.9 | 33.8 | 0.00 | 0.00 | 0.00 | 100 | 1008.1 |
| 20260506210129 | 17 | 154 | 16.1 | 33.8 | 0.00 | 0.00 | 0.00 | 100 | 1008.1 |
| 20260506205126 | 17 | 152 | 16.1 | 35.4 | 0.00 | 0.00 | 0.00 | 100 | 1008.0 |
| 20260506204625 | 17 | 153 | 17.7 | 35.4 | 0.00 | 0.00 | 0.00 | 100 | 1007.9 |
| 20260506204123 | 17 | 145 | 16.1 | 45.1 | 0.00 | 0.00 | 0.00 | 100 | 1007.9 |
| 20260506203622 | 17 | 155 | 19.3 | 45.1 | 0.00 | 0.00 | 0.00 | 99 | 1007.8 |
| 20260506203120 | 17 | 153 | 14.5 | 37.0 | 0.00 | 0.00 | 0.00 | 100 | 1007.6 |
| 20260506202618 | 17 | 168 | 16.1 | 40.2 | 0.00 | 0.00 | 0.00 | 99 | 1007.6 |
| 20260506202115 | 17 | 162 | 19.3 | 40.2 | 0.00 | 0.00 | 0.00 | 98 | 1007.7 |
| 20260506201614 | 17 | 149 | 16.1 | 33.8 | 0.00 | 0.00 | 0.00 | 98 | 1007.6 |
| 20260506201110 | 17 | 159 | 19.3 | 35.4 | 0.00 | 0.00 | 0.00 | 98 | 1007.6 |
| 20260506200609 | 17 | 157 | 19.3 | 38.6 | 0.00 | 0.00 | 0.00 | 97 | 1007.5 |
| 20260506200108 | 17 | 152 | 22.5 | 38.6 | 0.00 | 0.00 | 0.00 | 96 | 1007.6 |
| 20260506195606 | 17 | 148 | 17.7 | 35.4 | 0.00 | 0.00 | 0.00 | 95 | 1007.2 |
| 20260506195104 | 17 | 152 | 14.5 | 38.6 | 0.00 | 0.00 | 0.00 | 96 | 1007.6 |
| 20260506194602 | 17 | 153 | 19.3 | 38.6 | 0.00 | 0.00 | 0.00 | 94 | 1007.2 |
| 20260506194101 | 17 | 157 | 16.1 | 30.6 | 0.00 | 0.00 | 0.00 | 96 | 1007.3 |
| 20260506193600 | 17 | 145 | 16.1 | 35.4 | 0.00 | 0.00 | 0.00 | 95 | 1007.4 |
| 20260506193057 | 18 | 149 | 12.9 | 35.4 | 0.00 | 0.00 | 0.00 | 93 | 1007.5 |
| 20260506192554 | 18 | 149 | 16.1 | 35.4 | 0.00 | 0.00 | 0.00 | 92 | 1007.5 |
| 20260506192052 | 18 | 154 | 16.1 | 27.4 | 0.00 | 0.00 | 0.00 | 93 | 1007.5 |
| 20260506191551 | 18 | 160 | 16.1 | 35.4 | 0.00 | 0.00 | 0.00 | 94 | 1007.3 |
| 20260506191047 | 18 | 165 | 20.9 | 35.4 | 0.00 | 0.00 | 0.00 | 92 | 1007.4 |
| 20260506190545 | 18 | 164 | 12.9 | 30.6 | 0.00 | 0.00 | 0.00 | 93 | 1007.4 |
| 20260506190044 | 18 | 164 | 11.3 | 35.4 | 0.00 | 0.00 | 0.00 | 92 | 1007.5 |
| 20260506185543 | 18 | 153 | 17.7 | 35.4 | 0.00 | 0.00 | 0.00 | 90 | 1007.3 |
| 20260506185042 | 18 | 163 | 14.5 | 35.4 | 0.00 | 0.00 | 0.00 | 91 | 1007.3 |
| 20260506184540 | 18 | 165 | 17.7 | 35.4 | 0.00 | 0.00 | 0.00 | 89 | 1007.2 |
| 20260506184039 | 18 | 164 | 16.1 | 35.4 | 0.00 | 0.00 | 0.00 | 89 | 1007.0 |
| 20260506183532 | 18 | 154 | 16.1 | 35.4 | 0.00 | 0.00 | 0.00 | 88 | 1006.9 |
| 20260506183030 | 18 | 159 | 14.5 | 38.6 | 0.00 | 0.00 | 0.00 | 87 | 1006.8 |
| 20260506182028 | 18 | 167 | 16.1 | 29.0 | 0.00 | 0.00 | 0.00 | 85 | 1006.8 |
| 20260506181527 | 18 | 170 | 14.5 | 27.4 | 0.00 | 0.00 | 0.00 | 85 | 1006.9 |
| 20260506181025 | 18 | 168 | 12.9 | 22.5 | 0.00 | 0.00 | 0.00 | 84 | 1006.9 |
| 20260506180523 | 18 | 160 | 12.9 | 25.7 | 0.00 | 0.00 | 0.00 | 83 | 1006.9 |
| 20260506180021 | 19 | 164 | 16.1 | 29.0 | 0.00 | 0.00 | 0.00 | 82 | 1006.8 |
| 20260506175520 | 19 | 165 | 16.1 | 40.2 | 0.00 | 0.00 | 0.00 | 81 | 1006.8 |
| 20260506175018 | 19 | 157 | 16.1 | 40.2 | 0.00 | 0.00 | 0.00 | 81 | 1006.6 |
| 20260506174518 | 19 | 162 | 19.3 | 41.8 | 0.00 | 0.00 | 0.00 | 80 | 1006.5 |
| 20260506173515 | 20 | 160 | 14.5 | 38.6 | 0.00 | 0.00 | 0.00 | 79 | 1006.4 |
| 20260506173013 | 20 | 153 | 19.3 | 37.0 | 0.00 | 0.00 | 0.00 | 77 | 1006.3 |
| 20260506172512 | 20 | 151 | 17.7 | 43.5 | 0.00 | 0.00 | 0.00 | 76 | 1006.5 |
| 20260506172009 | 20 | 154 | 17.7 | 41.8 | 0.00 | 0.00 | 0.00 | 75 | 1006.4 |
| 20260506171508 | 20 | 155 | 24.1 | 41.8 | 0.00 | 0.00 | 0.00 | 74 | 1006.2 |
| 20260506170505 | 20 | 162 | 12.9 | 35.4 | 0.00 | 0.00 | 0.00 | 73 | 1006.7 |
| 20260506170003 | 21 | 162 | 16.1 | 33.8 | 0.00 | 0.00 | 0.00 | 72 | 1006.6 |
| 20260506165502 | 21 | 173 | 9.7 | 35.4 | 0.00 | 0.00 | 0.00 | 70 | 1006.7 |
| 20260506165001 | 21 | 166 | 19.3 | 33.8 | 0.00 | 0.00 | 0.00 | 71 | 1006.8 |
| 20260506164459 | 21 | 173 | 20.9 | 33.8 | 0.00 | 0.00 | 0.00 | 69 | 1006.7 |
| 20260506163958 | 21 | 157 | 12.9 | 35.4 | 0.00 | 0.00 | 0.00 | 69 | 1006.8 |
| 20260506163456 | 21 | 165 | 19.3 | 35.4 | 0.00 | 0.00 | 0.00 | 68 | 1006.9 |
| 20260506162955 | 21 | 157 | 17.7 | 33.8 | 0.00 | 0.00 | 0.00 | 67 | 1006.9 |
| 20260506162454 | 21 | 156 | 20.9 | 33.8 | 0.00 | 0.00 | 0.00 | 66 | 1006.7 |
| 20260506161953 | 21 | 167 | 12.9 | 33.8 | 0.00 | 0.00 | 0.00 | 67 | 1006.8 |
| 20260506161452 | 21 | 165 | 16.1 | 33.8 | 0.00 | 0.00 | 0.00 | 67 | 1006.9 |
| 20260506160949 | 21 | 162 | 17.7 | 33.8 | 0.00 | 0.00 | 0.00 | 65 | 1007.0 |
| 20260506160447 | 22 | 172 | 14.5 | 33.8 | 0.00 | 0.00 | 0.00 | 64 | 1007.0 |
| 20260506155946 | 22 | 177 | 11.3 | 27.4 | 0.00 | 0.00 | 0.00 | 65 | 1007.2 |
| 20260506155445 | 22 | 169 | 11.3 | 30.6 | 0.00 | 0.00 | 0.00 | 65 | 1007.2 |
| 20260506154944 | 22 | 170 | 14.5 | 30.6 | 0.00 | 0.00 | 0.00 | 64 | 1007.1 |
| 20260506154443 | 22 | 172 | 9.7 | 30.6 | 0.00 | 0.00 | 0.00 | 66 | 1007.1 |
| 20260506153941 | 22 | 185 | 12.9 | 30.6 | 0.00 | 0.00 | 0.00 | 66 | 1007.2 |
| 20260506153440 | 22 | 175 | 12.9 | 30.6 | 0.00 | 0.00 | 0.00 | 67 | 1007.1 |
| 20260506152939 | 22 | 166 | 14.5 | 27.4 | 0.00 | 0.00 | 0.00 | 67 | 1007.1 |
| 20260506152436 | 22 | 163 | 12.9 | 35.4 | 0.00 | 0.00 | 0.00 | 66 | 1007.2 |
| 20260506151934 | 22 | 166 | 16.1 | 35.4 | 0.00 | 0.00 | 0.00 | 65 | 1007.4 |
| 20260506150930 | 22 | 175 | 11.3 | 33.8 | 0.00 | 0.00 | 0.00 | 64 | 1007.5 |
| 20260506150427 | 22 | 156 | 17.7 | 33.8 | 0.00 | 0.00 | 0.00 | 63 | 1007.5 |
| 20260506145924 | 22 | 155 | 16.1 | 38.6 | 0.00 | 0.00 | 0.00 | 63 | 1007.7 |
| 20260506145423 | 22 | 163 | 20.9 | 38.6 | 0.00 | 0.00 | 0.00 | 61 | 1007.4 |
| 20260506144421 | 23 | 169 | 14.5 | 38.6 | 0.00 | 0.00 | 0.00 | 58 | 1007.5 |
| 20260506143920 | 23 | 172 | 16.1 | 38.6 | 0.00 | 0.00 | 0.00 | 59 | 1007.6 |
| 20260506143419 | 23 | 173 | 12.9 | 32.2 | 0.00 | 0.00 | 0.00 | 58 | 1007.4 |
| 20260506142416 | 23 | 145 | 17.7 | 30.6 | 0.00 | 0.00 | 0.00 | 58 | 1007.4 |
| 20260506141915 | 23 | 142 | 12.9 | 27.4 | 0.00 | 0.00 | 0.00 | 57 | 1007.5 |
| 20260506140912 | 22 | 174 | 12.9 | 32.2 | 0.00 | 0.00 | 0.00 | 58 | 1007.6 |